[[{"header":{"parameterUnit":"m.s-1","parameterCategory":1,"la1":30.2991,"la2":30.254,"lo1":-89.0895,"lo2":-89.0444,"dy":0.0017,"dx":0.0017,"nx":28,"ny":28,"refTime":"2026-01-31T09:00:00:Z","depth":0,"parameterNumber":2,"parameterNumberName":"U-component_of_WINDS"},"data":[0,0,0,0,0,0,0,0,0,0,0,0,0,0,0,0,0,0,0,0,0,0,0,0,0,0,0,0,0,0,0,0,0,0,0,0,0,0,0,0,0,0,0,0,0,0,0,0,0,0,0,0,0,0,0,0,0,0,2.3563,2.3564,0,2.3647,2.3648,2.3649,2.3667,2.3666,2.3666,2.3665,2.3749,2.3752,2.3754,0,0,0,0,0,0,0,0,0,0,0,0,0,2.3418,2.3421,2.3563,2.3564,2.3565,2.3647,2.3648,2.3649,2.3667,2.3666,2.3666,2.3665,2.3748,2.3751,2.3755,0,0,0,0,0,0,0,0,0,0,0,0,0,2.3489,2.3421,2.3563,2.3584,2.3587,2.3647,2.3648,2.365,2.3667,2.3666,2.3666,2.3665,2.3747,2.3751,2.3755,2.3799,0,0,2.3768,2.377,0,0,0,0,0,0,0,0,2.3485,2.3495,2.358,2.3583,2.3586,2.3646,2.3628,2.37,2.3668,2.3637,2.3665,2.3664,2.3715,2.3722,2.374,2.3803,2.3807,2.3768,2.3771,2.3773,2.3774,0,0,0,0,0,0,0,2.348,2.3491,2.3596,2.3581,2.3585,2.3589,2.3598,2.3641,2.368,2.3639,2.3641,2.3651,2.3717,2.3736,2.3742,2.3808,2.3768,2.3772,2.3775,2.3776,2.3913,2.3914,0,0,0,0,0,0,2.3472,2.3487,2.3594,2.3599,2.3532,2.3593,2.3603,2.3627,2.368,2.3687,2.3651,2.3651,2.3729,2.3737,2.3745,2.38,2.3773,2.3777,2.3779,2.3912,2.3913,2.3915,0,0,0,0,0,0,2.3469,2.3481,2.359,2.3543,2.3558,2.3596,2.3624,2.363,2.3648,2.3689,2.3696,2.3664,2.3728,2.3739,2.3786,2.3803,2.3778,2.3782,2.3911,2.3912,2.3914,2.3911,0,0,0,0,0,0,2.3464,2.348,2.3497,2.3544,2.356,2.363,2.3625,2.3632,2.3656,2.3656,2.3702,2.3709,2.3729,2.378,2.379,2.3809,2.3786,2.3909,2.3911,2.3913,2.391,2.3912,2.3915,0,0,0,0,0,2.3459,2.3492,2.3498,2.3511,2.3582,2.3631,2.3641,2.3663,2.3657,2.3675,2.3701,2.3707,2.38,2.3784,2.3796,2.3816,2.3908,2.3911,2.3913,2.3908,2.3912,2.3915,0,0,0,0,0,0,2.3445,2.3498,2.3505,2.3554,2.3588,2.3634,2.3657,2.3666,2.3702,2.37,2.3727,2.3737,2.3783,2.3804,2.3786,2.3862,2.3854,2.3859,2.3846,2.385,2.3852,2.3845,2.3789,0,0,0,0,0,2.3448,2.3484,2.3528,2.3567,2.3584,2.3618,2.364,2.3655,2.369,2.3705,2.3734,2.3768,2.3805,2.3829,2.3865,2.3914,2.3924,2.3933,2.3936,2.3938,2.3941,2.3969,2.3974,2.3923,2.3923,2.3923,0,0,2.3454,2.3487,2.3508,2.3565,2.3593,2.3629,2.3629,2.3667,2.3694,2.371,2.3756,2.378,2.382,2.3868,2.389,2.3887,2.3958,2.3941,2.3942,2.3945,2.3972,2.3977,2.3981,2.3925,2.3924,2.3924,0,0,2.3482,2.3512,2.3548,2.3576,2.3619,2.3642,2.365,2.3696,2.3712,2.3759,2.3772,2.3805,2.3868,2.3896,2.3919,2.3961,2.3968,2.3972,2.3984,2.4011,2.4015,2.4019,2.4034,2.4039,2.3976,2.3976,2.3976,0,2.3484,2.3539,2.3565,2.3603,2.3628,2.3646,2.3682,2.3709,2.3761,2.3777,2.3774,2.3854,2.3882,2.3938,2.3948,2.3966,2.3977,2.3966,2.4013,2.4017,2.402,2.4035,2.4041,2.3976,2.3976,2.3976,2.3976,0,2.3539,2.3577,2.3601,2.3652,2.368,2.3717,2.3749,2.3774,2.3787,2.381,2.3859,2.3894,2.3938,2.3952,2.3965,2.401,2.4007,2.4008,2.3999,2.4025,2.4039,2.4045,2.3976,2.3976,2.3976,2.3976,0,0,2.3559,2.3626,2.3634,2.3658,2.3708,2.3738,2.3776,2.382,2.3841,2.3877,2.391,2.3964,2.3966,2.3992,2.4008,2.4032,2.4063,2.403,2.4032,2.4035,2.4115,2.4114,2.412,2.4069,2.4071,2.4071,2.4112,0,2.3593,2.3663,2.3688,2.3745,2.3781,2.3799,2.3833,2.3867,2.389,2.3924,2.3949,2.3987,2.3987,2.4003,2.4027,2.4054,2.408,2.4052,2.4099,2.4101,2.4088,2.4127,2.4125,2.4161,2.4118,2.4119,2.4119,0,2.3642,2.368,2.3741,2.3787,2.3803,2.3833,2.3876,2.3909,2.3948,2.3963,2.3993,2.4009,2.405,2.4041,2.4098,2.4078,2.4099,2.4116,2.4118,2.4122,2.4111,2.4132,2.4174,2.4179,2.4128,2.4128,2.4127,0,2.365,2.3717,2.3762,2.3782,2.3837,2.3858,2.3882,2.3921,2.3946,2.3984,2.4001,2.4043,2.4065,2.4098,2.4124,2.4115,2.4179,2.4172,2.4192,2.4192,2.4204,2.4202,2.4249,2.4219,2.4219,2.4219,2.4219,0,2.3685,2.3721,2.3766,2.3794,2.3835,2.3865,2.3905,2.393,2.3965,2.3998,2.4017,2.4047,2.4081,2.4116,2.4137,2.4181,2.4191,2.4205,2.421,2.4202,2.4201,2.4216,2.4213,2.422,2.422,2.422,2.4219,0,2.37,2.3732,2.3782,2.3832,2.3845,2.3873,2.3915,2.3943,2.3968,2.401,2.4021,2.406,2.4102,2.4132,2.4187,2.4201,2.4248,2.4254,2.4235,2.4237,2.4256,2.4254,2.4313,2.4322,2.4287,2.4287,2.4288,0,2.372,2.3748,2.3801,2.3825,2.385,2.3888,2.3914,2.3945,2.3971,2.402,2.4042,2.4086,2.4122,2.4189,2.4222,2.4264,2.427,2.4288,2.4276,2.4268,2.427,2.4267,2.427,2.4289,2.4289,2.429,2.429,0,2.3751,2.3766,2.3804,2.3848,2.3879,2.3915,2.395,2.3969,2.4006,2.4035,2.4079,2.4108,2.4164,2.4208,2.4253,2.4278,2.429,2.4294,2.4301,2.4293,2.4281,2.4287,2.4239,2.4292,2.4291,2.4291,2.4291,2.4291,2.3769,2.3795,2.3837,2.3879,2.391,2.3943,2.3972,2.4002,2.4039,2.4088,2.4104,2.4149,2.419,2.4253,2.4278,2.4315,2.4314,2.4323,2.4326,2.4328,2.4327,2.4276,2.4323,2.4323,2.4323,2.4323,2.4323,0,2.3801,2.3829,2.3867,2.3918,2.3951,2.3961,2.4002,2.4029,2.4069,2.4106,2.4142,2.4194,2.4236,2.4274,2.4318,2.434,2.4347,2.4351,2.4349,2.4354,2.4326,2.4315,2.4345,2.4345,2.4345,2.4345,2.4345,2.4345,2.3821,2.3867,2.3887,2.3948,2.3977,2.4022,2.4045,2.4076,2.4106,2.4162,2.4198,2.4223,2.426,2.4308,2.4348,2.4358,2.4373,2.4376,2.4387,2.4359,2.4356,2.4354,2.4344,2.4379,2.4379,2.4412,2.4413,2.4413]},{"header":{"parameterUnit":"m.s-1","parameterCategory":1,"la1":30.2991,"la2":30.254,"lo1":-89.0895,"lo2":-89.0444,"dy":0.0017,"dx":0.0017,"nx":28,"ny":28,"refTime":"2026-01-31T09:00:00:Z","depth":0,"parameterNumber":3,"parameterNumberName":"V-component_of_WINDS"},"data":[0,0,0,0,0,0,0,0,0,0,0,0,0,0,0,0,0,0,0,0,0,0,0,0,0,0,0,0,0,0,0,0,0,0,0,0,0,0,0,0,0,0,0,0,0,0,0,0,0,0,0,0,0,0,0,0,0,0,-8.4384,-8.4387,0,-8.4606,-8.4609,-8.4611,-8.4537,-8.4532,-8.4527,-8.4523,-8.4746,-8.4756,-8.4767,0,0,0,0,0,0,0,0,0,0,0,0,0,-8.3892,-8.3902,-8.4384,-8.4387,-8.439,-8.4606,-8.4609,-8.4612,-8.4538,-8.4532,-8.4526,-8.452,-8.4743,-8.4755,-8.4768,0,0,0,0,0,0,0,0,0,0,0,0,0,-8.4109,-8.3905,-8.4384,-8.4379,-8.4381,-8.4605,-8.4609,-8.4613,-8.4539,-8.4532,-8.4524,-8.4518,-8.4739,-8.4754,-8.4769,-8.5011,0,0,-8.4817,-8.4824,0,0,0,0,0,0,0,0,-8.4097,-8.4127,-8.4377,-8.438,-8.4382,-8.4537,-8.4517,-8.4746,-8.4541,-8.4479,-8.4523,-8.4514,-8.4682,-8.4702,-8.4759,-8.5021,-8.5031,-8.4819,-8.4828,-8.4835,-8.4839,0,0,0,0,0,0,0,-8.4082,-8.4117,-8.4472,-8.438,-8.4384,-8.4364,-8.4387,-8.456,-8.4618,-8.4484,-8.4479,-8.4506,-8.4682,-8.4744,-8.4764,-8.5034,-8.4818,-8.4832,-8.4842,-8.4848,-8.5506,-8.5513,0,0,0,0,0,0,-8.4066,-8.4105,-8.4465,-8.4478,-8.4219,-8.4379,-8.4405,-8.4494,-8.4616,-8.4628,-8.4512,-8.4502,-8.4721,-8.4746,-8.4772,-8.5063,-8.4835,-8.4849,-8.4858,-8.5498,-8.5507,-8.5516,0,0,0,0,0,0,-8.4056,-8.4099,-8.4456,-8.4291,-8.4335,-8.4395,-8.4496,-8.4502,-8.4565,-8.4638,-8.4647,-8.4566,-8.4716,-8.4749,-8.4952,-8.507,-8.4856,-8.4871,-8.5488,-8.5501,-8.5512,-8.5647,0,0,0,0,0,0,-8.4042,-8.4096,-8.4189,-8.4294,-8.4344,-8.4635,-8.4504,-8.4512,-8.4592,-8.4581,-8.469,-8.4701,-8.4713,-8.4929,-8.4968,-8.5087,-8.4883,-8.5478,-8.5494,-8.5508,-8.5633,-8.5663,-8.5688,0,0,0,0,0,-8.4025,-8.4217,-8.4194,-8.4238,-8.4462,-8.4641,-8.467,-8.4681,-8.4602,-8.4696,-8.4743,-8.4698,-8.505,-8.4951,-8.4993,-8.5119,-8.547,-8.5489,-8.5507,-8.562,-8.5657,-8.5687,0,0,0,0,0,0,-8.4124,-8.4231,-8.4206,-8.4439,-8.4532,-8.4628,-8.4747,-8.4719,-8.4835,-8.482,-8.4827,-8.4852,-8.5061,-8.511,-8.4997,-8.536,-8.5248,-8.5276,-8.532,-8.5355,-8.5383,-8.5366,-8.4896,0,0,0,0,0,-8.4173,-8.4311,-8.4396,-8.4593,-8.4641,-8.4687,-8.4765,-8.4765,-8.4861,-8.49,-8.4961,-8.5055,-8.5187,-8.5274,-8.5399,-8.5639,-8.5662,-8.5747,-8.5774,-8.5797,-8.5821,-8.5951,-8.599,-8.5576,-8.5576,-8.5575,0,0,-8.4275,-8.4351,-8.4437,-8.4615,-8.4687,-8.4829,-8.472,-8.4874,-8.4979,-8.4923,-8.5119,-8.5167,-8.5272,-8.5495,-8.5596,-8.5543,-8.594,-8.582,-8.5837,-8.5849,-8.5974,-8.6013,-8.6048,-8.5588,-8.5586,-8.5584,0,0,-8.4534,-8.4606,-8.4778,-8.4852,-8.4963,-8.4992,-8.5034,-8.5135,-8.5166,-8.5363,-8.5324,-8.5448,-8.5675,-8.5751,-8.582,-8.6109,-8.6072,-8.6149,-8.6294,-8.6422,-8.6455,-8.6483,-8.6587,-8.6624,-8.6173,-8.6173,-8.6173,0,-8.4647,-8.4861,-8.4869,-8.5028,-8.5107,-8.5064,-8.5237,-8.5309,-8.5455,-8.551,-8.5448,-8.5733,-8.58,-8.604,-8.6111,-8.6168,-8.6215,-8.6137,-8.6449,-8.6479,-8.6506,-8.6604,-8.6643,-8.6182,-8.6181,-8.618,-8.6179,0,-8.4994,-8.5143,-8.5268,-8.5412,-8.5505,-8.567,-8.5703,-8.5796,-8.5788,-8.5823,-8.6024,-8.6104,-8.6245,-8.6302,-8.6295,-8.6542,-8.6505,-8.6447,-8.6335,-8.6554,-8.6647,-8.6684,-8.6194,-8.6191,-8.6188,-8.6186,0,0,-8.5322,-8.5469,-8.5515,-8.558,-8.5699,-8.5814,-8.5976,-8.6116,-8.6195,-8.6297,-8.6434,-8.6627,-8.6574,-8.6652,-8.6653,-8.6765,-8.699,-8.6693,-8.6696,-8.6746,-8.7266,-8.731,-8.7354,-8.6966,-8.6973,-8.6979,-8.7258,0,-8.5591,-8.588,-8.5892,-8.6154,-8.6291,-8.6252,-8.6394,-8.6482,-8.6519,-8.664,-8.668,-8.6818,-8.6737,-8.6784,-8.6893,-8.6939,-8.7094,-8.6919,-8.7092,-8.7098,-8.7068,-8.7402,-8.7449,-8.7709,-8.7294,-8.73,-8.7305,0,-8.5944,-8.6059,-8.6335,-8.6436,-8.6494,-8.6621,-8.675,-8.6866,-8.6965,-8.6984,-8.7072,-8.7057,-8.7223,-8.7106,-8.7334,-8.7215,-8.7286,-8.732,-8.733,-8.7347,-8.7215,-8.7429,-8.7792,-8.7831,-8.7362,-8.7357,-8.7353,0,-8.6157,-8.638,-8.6574,-8.6631,-8.6752,-8.6843,-8.6898,-8.699,-8.7073,-8.7185,-8.7238,-8.7368,-8.7439,-8.7539,-8.7559,-8.7472,-8.7788,-8.7672,-8.7808,-8.7807,-8.7876,-8.7872,-8.8257,-8.7922,-8.7921,-8.792,-8.7919,0,-8.6457,-8.6627,-8.6671,-8.6791,-8.6981,-8.6993,-8.718,-8.7228,-8.731,-8.7437,-8.741,-8.753,-8.755,-8.7674,-8.769,-8.7877,-8.7909,-8.7928,-8.7931,-8.7932,-8.7929,-8.7979,-8.7961,-8.7931,-8.7928,-8.7926,-8.7924,0,-8.6726,-8.6763,-8.6972,-8.707,-8.7099,-8.7235,-8.7318,-8.7433,-8.7466,-8.7628,-8.7667,-8.772,-8.7865,-8.7895,-8.8066,-8.8077,-8.8299,-8.8283,-8.8267,-8.8265,-8.8399,-8.8387,-8.883,-8.8889,-8.8515,-8.8518,-8.8521,0,-8.6916,-8.7046,-8.7159,-8.7244,-8.7303,-8.7439,-8.7524,-8.754,-8.763,-8.7752,-8.7852,-8.7994,-8.8108,-8.8341,-8.8395,-8.8525,-8.8513,-8.8659,-8.8532,-8.8529,-8.8515,-8.8508,-8.8521,-8.8683,-8.8687,-8.8691,-8.8693,0,-8.7248,-8.726,-8.7384,-8.7516,-8.7619,-8.7722,-8.7821,-8.7891,-8.7921,-8.8022,-8.8171,-8.826,-8.8435,-8.8577,-8.8707,-8.8762,-8.8734,-8.8733,-8.8771,-8.8773,-8.8759,-8.8769,-8.8334,-8.8723,-8.872,-8.8717,-8.8716,-8.8715,-8.7484,-8.7599,-8.7697,-8.7836,-8.7912,-8.8005,-8.8117,-8.8166,-8.8291,-8.8436,-8.8438,-8.86,-8.8695,-8.8868,-8.8931,-8.9057,-8.9011,-8.9066,-8.9081,-8.9094,-8.9107,-8.8738,-8.9081,-8.908,-8.9079,-8.9078,-8.9078,0,-8.7816,-8.7877,-8.8005,-8.8145,-8.8255,-8.8219,-8.8326,-8.842,-8.8564,-8.8655,-8.8769,-8.894,-8.9077,-8.9141,-8.9276,-8.9365,-8.9355,-8.94,-8.9394,-8.9407,-8.914,-8.9094,-8.9406,-8.9406,-8.9406,-8.9405,-8.9405,-8.9405,-8.8002,-8.8194,-8.8217,-8.8446,-8.8505,-8.8666,-8.873,-8.8815,-8.8889,-8.9081,-8.9196,-8.9237,-8.9318,-8.9458,-8.9582,-8.9597,-8.9648,-8.97,-8.9709,-8.9459,-8.9426,-8.9394,-8.935,-8.9711,-8.9711,-8.9965,-8.9968,-8.9969]}]]